クリステンセン彗星

286P/Christensen (2022)

English version
Home page
Updated on July 31, 2021

---------------------------------------------------------------------

・ プロフィール

・ 軌道要素

Epoch 2022 May 21.0 TT = JDT 2459720.5
T 2022 May 12.64758 TT                                  Rudenko
q   2.3610030            (2000.0)            P               Q
n   0.11825930     Peri.   24.85918     +0.60888704     +0.74050186
a   4.1106691      Node   283.95564     -0.76797860     +0.46047752
e   0.4256402      Incl.   17.04393     -0.19865913     +0.48950735
P   8.33
From 134 observations 2005 June 3-2021 Apr. 11, mean residual 0".6.

・ 光度変化

        m1 = 13.5 + 5 logΔ + 10.0 log r

---------------------------------------------------------------------

軌道要素はM.P.E.C. 2021-J28に掲載されたものです。
光度グラフはComet for Windowsで作成したものです。

---------------------------------------------------------------------

Copyright(C) Seiichi Yoshida (comet@aerith.net). All rights reserved.